Regional Weather Roundup
Issued by NWS Upton, NY

Home | Current Version | Previous Version | Text Only | Print | Product List | Glossary On
Versions: 1 2 3 4 5 6 7 8 9 10 11 12 13 14 15 16 17 18 19 20 21 22 23 24 25 26 27 28 29 30 31 32 33 34 35 36 37 38 39 40 41 42 43 44 45 46 47 48 49 50
000
ASUS41 KOKX 030805
RWROKX

REGIONAL WEATHER ROUNDUP
NATIONAL WEATHER SERVICE NEW YORK NY
400 AM EDT WED SEP 03 2014

NOTE: "FAIR" INDICATES FEW OR NO CLOUDS BELOW 12,000 FEET WITH NO
SIGNIFICANT WEATHER AND/OR OBSTRUCTIONS TO VISIBILITY.

NYZ071-072-176-178-NJZ106-104-030900-
NEW YORK CITY METRO AREA


CITY           SKY/WX    TMP DP  RH WIND       PRES   REMARKS
CENTRAL PARK   CLEAR     75  61  61 VRB7      29.90R
LAGUARDIA APRT PTCLDY    75  64  68 NW10G18   29.86R
KENNEDY INTL   PTCLDY    76  61  59 NW17      29.86R
NEWARK/LIBERTY PTCLDY    74  63  68 W10G18    29.88R
BRNX BOT. GARD   N/A    N/A N/A N/A N10       29.88R
TETERBORO      CLEAR     74  61  63 NW8       29.86R
$$

NYZ177-179-078>081-030900-
LONG ISLAND NEW YORK

CITY           SKY/WX    TMP DP  RH WIND       PRES   REMARKS
FARMINGDALE    CLEAR     74  63  68 NW8       29.85R
ISLIP          CLEAR     75  64  68 NW12G21   29.83R
SHIRLEY        PTCLDY    76  65  68 NW12      29.84R
WESTHAMPTON    MOCLDY    77  65  66 W10       29.84R
MONTAUK POINT    N/A     77  68  73 W12       29.81R
$$

NYZ052-065-067-030900-
HUDSON VALLEY

CITY           SKY/WX    TMP DP  RH WIND       PRES   REMARKS
WHITE PLAINS   CLEAR     71  63  75 NW15      29.85S
NEWBURGH       CLEAR     68  63  83 W12       29.89R
MONTGOMERY     PTCLDY    66  63  90 SW3       29.90R
POUGHKEEPSIE   PTCLDY    72  61  68 CALM      29.86R
ALBANY         MOCLDY    67  61  81 W7        29.88R
$$

NJZ001-105-106-008-010-013-015-019>022-104-030900-
NEW JERSEY

CITY           SKY/WX    TMP DP  RH WIND       PRES   REMARKS
NEWARK/LIBERTY PTCLDY    74  63  68 W10G18    29.88R
TETERBORO      CLEAR     74  61  63 NW8       29.86R
CALDWELL       CLEAR     71  61  70 CALM      29.89R
MORRISTOWN     CLEAR     73  63  68 W5        29.89R
SOMERVILLE     PTCLDY    71  66  84 CALM      29.88R
LINDEN         FAIR      78  65  65 NW9       29.89R
SUSSEX         PTCLDY    68  63  84 CALM      29.91R
ANDOVER          N/A     68  62  81 VRB3      29.92R
TRENTON        MOCLDY    72  65  78 W7        29.90R
MILLVILLE      MOCLDY    73  70  90 CALM      29.92R
ATLANTIC CITY  CLOUDY    73  70  90 MISG      29.91R
WRIGHTSTOWN    CLOUDY    72  68  87 NW7       29.88R
TOMS RIVER     PTCLDY    72  68  88 W5        29.90R
BELMAR         PTCLDY    72  64  78 W7        29.89R
$$

PAZ047>061-062-071-030900-
EASTERN PENNSYLVANIA

CITY           SKY/WX    TMP DP  RH WIND       PRES   REMARKS
PHILADELPHIA   CLOUDY    75  68  78 W6        29.92R
ALLENTOWN      PTCLDY    68  62  81 W5        29.92R
SCRANTON       CLOUDY    68  64  87 CALM      29.95R
$$

CTZ002-004>006-009-010-012-RIZ004-006-007-MAZ004-011-015-030900-
SOUTHERN NEW ENGLAND
 IN CT

CITY           SKY/WX    TMP DP  RH WIND       PRES   REMARKS
BRADLEY INTL   PTCLDY    72  60  66 NW15G31   29.81R
HARTFORD       PTCLDY    73  62  68 NW6       29.82R
DANBURY        PTCLDY    71  63  75 W7        29.88R
WTRBRY/OXFORD  PTCLDY    70  61  73 N10       29.88R
BRIDGEPORT     CLEAR     75  65  70 W7        29.83R
MERIDEN        PTCLDY    74  61  63 N8        29.83R
NEW HAVEN      PTCLDY    78  65  63 NW10      29.83R
CHESTER        FAIR      73  63  68 NW12G24   29.84R
GROTON         PTCLDY    77  67  71 NW18G24   29.78R
WILLIMANTIC    PTCLDY    74  63  68 NW14G23   29.81R

 IN RI

CITY           SKY/WX    TMP DP  RH WIND       PRES   REMARKS
PROVIDENCE     PTCLDY    78  69  73 W10G18    29.76R
BLOCK ISLAND   MOCLDY    73  66  78 W15G21    29.79R
WESTERLY       PTCLDY    77  68  73 W5        29.78R

 IN MA

CITY           SKY/WX    TMP DP  RH WIND       PRES   REMARKS
BOSTON         PTCLDY    76  70  82 W14G20    29.73R
WORCESTER      PTCLDY    69  63  81 W14G25    29.81R
WESTFIELD      PTCLDY    71  61  70 NW17G24   29.83R
PROVINCETOWN   PTCLDY    72  68  88 SW14      29.72S
NANTUCKET      CLEAR     72  68  87 SW16G23   29.77S
$$

ANZ330-335-338-340-345-350-353-355-030900-
COASTAL MARINE OBSERVATIONS


STATION/POSITION TIME  SKY/WX   TEMP    WIND        PRES    VSBY  WAVE
                                AIR SEA DIR/SP/G                  HT/PER
                 (UTC)          (F)     (DEG/KT/KT) (MB)    (MI)  (FT/S)
NY HARB ENTRANCE NOT AVBL
4S FIRE IS       NOT AVBL
23SW MTP         0800                                 N/A           5/ 5
HUDSON CANYON    0800            75 74  260/ 14/ 17   N/A           4/ 5
EXECUTION ROCKS  0800            75 74  290/ 14/ 17   N/A
WESTERN LI SOUND 0800            76     300/ 12/ 17   N/A           1
CENTRAL LI SOUND 0700            76 74  270/ 16/ 19   N/A           3/ 5
EASTERN LI SOUND 0700            74 70  260/ 16/ 21   N/A
ROBBINS REEF     0800            75     300/ 15/ 19   N/A
$$


>>>>>>>>>>>>>>>>>>>>>>>>>>>> KEY <<<<<<<<<<<<<<<<<<<<<<<<<<<
>                                                          <
>     SKY/WX - SKY CONDITION/PRESENT WEATHER               <
>     TMP    - TEMPERATURE IN FAHRENHEIT                   <
>     DP     - DEWPOINT IN FAHRENHEIT                      <
>     RH     - RELATIVE HUMIDITY IN PERCENT                <
>     WIND   - DIRECTION AND SPEED IN MPH                  <
>     PRES   - MEAN SEA LEVEL PRESSURE IN INCHES OF HG     <
>     WCI    - WIND CHILL INDEX                            <
>     VSB    - VISIBILITY IN MILES                         <
>     HX     - HEAT INDEX                                  <
>     TC     - TEMPERATURE IN CELSIUS                      <
>     VRB    - VARIABLE WIND DIRECTION                     <
>                                                          <
>>>>>>>>>>>>>>>>>>>>>>>>>>>> KEY <<<<<<<<<<<<<<<<<<<<<<<<<<<




USA.gov is the U.S. government's official web portal to all federal, state and local government web resources and services.